Location: Township of Marena
(38.1747°N, 99.6798°W)
Time: 03:29:20
(UTC+00:00)

SeaSat 1 - Pass Details

Date: 26 October 2020
Orbit: 744 x 747 km, 108.0° (Epoch: 24 November)

Event Time Altitude Azimuth Distance (km) Brightness Sun altitude
Exits shadow 01:51:12 42° 17° (NNE) 1,062 3.1 -25.0°
Drops below altitude 10° 01:54:48 10° 345° (NNW) 2,269 5.1 -25.8°
Sets 01:57:07 0° 341° (NNW) 3,197 6.0 -26.2°
